QPF
0.01 0.01 0.01 0.01 0.01 0.01 0.02 0.02 0.02 0.01 0.01 0.01 0.00 0.00 0.00 0.00 0.00 0.00 0.00 0.00 0.00 0.00 0.00 0.00 0.00 0.00 0.00 0.00 0.00 0.00 0.00 0.00 0.00 0.00 0.00 0.01 0.03 0.06 0.07 0.05 0.03 0.01 0.01 0.00
0.01 0.01 0.01 0.01 0.01 0.01 0.01 0.01 0.01 0.01 0.01 0.00 0.00 0.00 0.00 0.00 0.00 0.00 0.00 0.00 0.00 0.00 0.00 0.00 0.00 0.00 0.00 0.00 0.00 0.00 0.01 0.01 0.00 0.00 0.00 0.01 0.02 0.03 0.05 0.07 0.06 0.03 0.01 0.01
0.01 0.00 0.01 0.01 0.01 0.02 0.02 0.01 0.01 0.01 0.00 0.00 0.00 0.00 0.00 0.00 0.00 0.00 0.00 0.00 0.00 0.00 0.00 0.00 0.00 0.00 0.00 0.00 0.00 0.00 0.00 0.01 0.01 0.01 0.00 0.01 0.01 0.02 0.03 0.03 0.04 0.05 0.03 0.01
0.01 0.01 0.01 0.01 0.01 0.01 0.01 0.01 0.01 0.01 0.01 0.00 0.00 0.00 0.00 0.00 0.00 0.00 0.00 0.00 0.00 0.00 0.00 0.00 0.00 0.00 0.00 0.00 0.00 0.00 0.00 0.00 0.01 0.02 0.01 0.01 0.01 0.01 0.02 0.02 0.02 0.03 0.03 0.02
0.03 0.02 0.01 0.01 0.00 0.01 0.01 0.01 0.01 0.01 0.01 0.00 0.00 0.00 0.00 0.00 0.00 0.00 0.00 0.00 0.00 0.00 0.00 0.00 0.00 0.00 0.00 0.00 0.00 0.00 0.00 0.00 0.01 0.02 0.03 0.01 0.01 0.01 0.01 0.02 0.02 0.02 0.03 0.02
0.04 0.03 0.01 0.01 0.00 0.01 0.01 0.01 0.01 0.01 0.01 0.01 0.01 0.01 0.01 0.00 0.00 0.00 0.00 0.00 0.00 0.00 0.00 0.00 0.00 0.00 0.00 0.00 0.01 0.00 0.00 0.00 0.00 0.02 0.04 0.03 0.02 0.01 0.01 0.01 0.02 0.02 0.03 0.03
0.02 0.03 0.01 0.00 0.00 0.01 0.01 0.02 0.01 0.00 0.00 0.01 0.01 0.02 0.01 0.01 0.00 0.00 0.00 0.00 0.00 0.00 0.00 0.00 0.00 0.00 0.00 0.00 0.00 0.00 0.00 0.00 0.00 0.01 0.03 0.04 0.05 0.02 0.02 0.02 0.02 0.03 0.03 0.04
0.02 0.02 0.01 0.00 0.00 0.01 0.01 0.01 0.00 0.00 0.00 0.00 0.00 0.01 0.01 0.01 0.01 0.01 0.00 0.00 0.00 0.00 0.00 0.00 0.00 0.00 0.00 0.00 0.00 0.00 0.00 0.00 0.01 0.01 0.01 0.02 0.06 0.04 0.02 0.02 0.03 0.03 0.04 0.05
0.01 0.01 0.01 0.00 0.01 0.01 0.01 0.01 0.01 0.01 0.00 0.00 0.00 0.01 0.00 0.00 0.01 0.01 0.01 0.00 0.00 0.00 0.00 0.00 0.00 0.00 0.00 0.00 0.00 0.00 0.00 0.01 0.01 0.01 0.01 0.02 0.04 0.04 0.03 0.03 0.03 0.03 0.03 0.05
0.01 0.01 0.01 0.00 0.00 0.00 0.00 0.00 0.01 0.01 0.00 0.00 0.01 0.01 0.01 0.01 0.01 0.00 0.00 0.00 0.00 0.00 0.00 0.00 0.00 0.00 0.00 0.00 0.01 0.01 0.01 0.01 0.01 0.02 0.02 0.02 0.02 0.03 0.03 0.04 0.04 0.04 0.03 0.04
0.00 0.00 0.00 0.00 0.00 0.00 0.00 0.00 0.00 0.00 0.00 0.00 0.00 0.00 0.00 0.01 0.00 0.00 0.00 0.00 0.00 0.00 0.00 0.00 0.00 0.01 0.01 0.01 0.01 0.01 0.01 0.01 0.01 0.02 0.03 0.03 0.03 0.03 0.03 0.03 0.03 0.04 0.04 0.05
0.00 0.00 0.00 0.00 0.00 0.00 0.00 0.00 0.00 0.00 0.00 0.00 0.00 0.00 0.00 0.00 0.00 0.00 0.00 0.00 0.00 0.00 0.00 0.01 0.01 0.01 0.01 0.01 0.01 0.02 0.02 0.02 0.02 0.03 0.03 0.04 0.04 0.04 0.04 0.04 0.04 0.04 0.04 0.06
0.00 0.00 0.00 0.00 0.00 0.00 0.00 0.00 0.00 0.00 0.00 0.00 0.00 0.00 0.00 0.00 0.00 0.00 0.00 0.00 0.00 0.00 0.01 0.01 0.01 0.01 0.01 0.02 0.02 0.02 0.02 0.03 0.03 0.03 0.03 0.04 0.04 0.04 0.04 0.04 0.05 0.04 0.05 0.05
0.00 0.00 0.00 0.00 0.00 0.00 0.00 0.00 0.00 0.00 0.00 0.00 0.00 0.00 0.00 0.00 0.00 0.00 0.00 0.01 0.01 0.01 0.01 0.01 0.01 0.01 0.01 0.02 0.02 0.02 0.02 0.03 0.03 0.03 0.03 0.04 0.04 0.03 0.03 0.03 0.04 0.04 0.05 0.06
0.00 0.00 0.00 0.00 0.00 0.00 0.00 0.00 0.00 0.00 0.00 0.00 0.00 0.00 0.00 0.00 0.00 0.00 0.01 0.01 0.01 0.01 0.01 0.01 0.01 0.01 0.01 0.02 0.02 0.02 0.02 0.02 0.02 0.03 0.03 0.03 0.03 0.03 0.04 0.04 0.04 0.04 0.04 0.04
0.00 0.00 0.00 0.00 0.00 0.00 0.00 0.00 0.00 0.00 0.00 0.00 0.00 0.00 0.00 0.00 0.00 0.00 0.00 0.01 0.01 0.01 0.01 0.01 0.01 0.01 0.01 0.01 0.01 0.01 0.01 0.02 0.02 0.02 0.03 0.03 0.03 0.03 0.03 0.03 0.04 0.03 0.03 0.03
0.00 0.00 0.00 0.00 0.00 0.00 0.00 0.00 0.00 0.00 0.00 0.00 0.00 0.00 0.00 0.00 0.00 0.00 0.01 0.01 0.00 0.00 0.00 0.01 0.01 0.01 0.01 0.01 0.01 0.01 0.01 0.02 0.02 0.02 0.02 0.02 0.02 0.02 0.02 0.02 0.03 0.02 0.02 0.02
0.00 0.00 0.00 0.00 0.00 0.00 0.00 0.00 0.00 0.00 0.00 0.00 0.00 0.00 0.00 0.00 0.00 0.00 0.01 0.00 0.00 0.00 0.00 0.01 0.01 0.01 0.01 0.01 0.01 0.01 0.01 0.02 0.02 0.02 0.02 0.01 0.01 0.02 0.02 0.02 0.02 0.02 0.02 0.02
0.00 0.00 0.00 0.00 0.00 0.00 0.00 0.00 0.00 0.00 0.00 0.00 0.00 0.00 0.00 0.00 0.00 0.00 0.00 0.00 0.00 0.01 0.01 0.01 0.01 0.01 0.01 0.01 0.01 0.01 0.01 0.01 0.01 0.01 0.01 0.01 0.01 0.01 0.02 0.02 0.02 0.02 0.02 0.02
0.00 0.00 0.00 0.00 0.00 0.00 0.00 0.00 0.00 0.00 0.00 0.00 0.00 0.00 0.00 0.00 0.00 0.00 0.00 0.01 0.01 0.01 0.01 0.01 0.01 0.01 0.01 0.01 0.01 0.01 0.02 0.01 0.01 0.01 0.01 0.01 0.01 0.01 0.01 0.02 0.02 0.02 0.02 0.02
0.00 0.00 0.00 0.00 0.00 0.00 0.00 0.00 0.00 0.00 0.00 0.00 0.00 0.00 0.00 0.00 0.00 0.01 0.01 0.01 0.01 0.01 0.01 0.01 0.01 0.01 0.00 0.00 0.01 0.01 0.01 0.01 0.01 0.01 0.01 0.01 0.01 0.01 0.01 0.01 0.02 0.02 0.02 0.02
0.00 0.00 0.00 0.00 0.00 0.00 0.00 0.00 0.00 0.00 0.00 0.00 0.00 0.00 0.00 0.00 0.00 0.01 0.01 0.01 0.01 0.01 0.01 0.01 0.01 0.01 0.01 0.01 0.00 0.01 0.01 0.01 0.01 0.01 0.01 0.01 0.01 0.01 0.01 0.01 0.01 0.01 0.01 0.01
0.00 0.00 0.00 0.00 0.00 0.00 0.00 0.00 0.00 0.00 0.00 0.00 0.00 0.01 0.01 0.01 0.01 0.01 0.01 0.01 0.01 0.01 0.01 0.01 0.01 0.01 0.01 0.01 0.00 0.01 0.01 0.01 0.01 0.01 0.01 0.01 0.01 0.01 0.01 0.01 0.01 0.01 0.01 0.01
0.00 0.00 0.00 0.00 0.00 0.00 0.00 0.00 0.00 0.00 0.00 0.00 0.01 0.01 0.01 0.01 0.01 0.01 0.02 0.02 0.02 0.02 0.01 0.01 0.01 0.01 0.01 0.01 0.01 0.01 0.01 0.01 0.01 0.01 0.01 0.01 0.01 0.01 0.01 0.01 0.01 0.01 0.01 0.01
0.00 0.01 0.01 0.01 0.01 0.01 0.01 0.01 0.01 0.00 0.00 0.00 0.00 0.00 0.00 0.01 0.01 0.01 0.02 0.02 0.02 0.02 0.01 0.01 0.01 0.01 0.01 0.01 0.01 0.01 0.01 0.01 0.01 0.01 0.01 0.01 0.01 0.01 0.01 0.01 0.01 0.01 0.01 0.01
0.00 0.01 0.01 0.01 0.01 0.02 0.02 0.01 0.01 0.01 0.00 0.00 0.00 0.00 0.00 0.01 0.01 0.01 0.02 0.02 0.02 0.02 0.01 0.01 0.01 0.01 0.01 0.01 0.01 0.01 0.01 0.01 0.01 0.01 0.01 0.01 0.01 0.01 0.01 0.01 0.01 0.01 0.01 0.01
0.00 0.01 0.01 0.01 0.01 0.01 0.01 0.01 0.01 0.01 0.01 0.01 0.01 0.01 0.01 0.01 0.01 0.01 0.02 0.02 0.02 0.01 0.01 0.01 0.01 0.01 0.01 0.01 0.01 0.01 0.01 0.01 0.01 0.01 0.01 0.01 0.01 0.01 0.01 0.01 0.01 0.01 0.01 0.01
MSLP
1001.37 999.91 998.58 997.42 996.44 995.64 995.02 994.55 994.22 994.03 993.97 994.05 994.27 994.62 995.10 995.69 996.34 997.02 997.67 998.25 998.74 999.10 999.35 999.51 999.59 999.66 999.74 999.89 1000.13 1000.48 1000.94 1001.50 1002.14 1002.84 1003.56 1004.30 1005.02 1005.72 1006.39 1007.04 1007.69 1008.35 1009.03 1009.76
1001.81 1000.35 998.98 997.75 996.70 995.84 995.16 994.67 994.36 994.22 994.25 994.43 994.77 995.24 995.82 996.48 997.19 997.89 998.55 999.13 999.59 999.95 1000.18 1000.33 1000.41 1000.48 1000.57 1000.71 1000.95 1001.29 1001.74 1002.28 1002.91 1003.59 1004.32 1005.05 1005.77 1006.47 1007.15 1007.81 1008.46 1009.12 1009.80 1010.53
1002.08 1000.71 999.42 998.25 997.24 996.40 995.74 995.27 994.98 994.87 994.93 995.14 995.51 996.00 996.60 997.26 997.96 998.65 999.29 999.87 1000.34 1000.71 1000.97 1001.16 1001.28 1001.39 1001.50 1001.67 1001.92 1002.25 1002.68 1003.21 1003.81 1004.48 1005.19 1005.91 1006.63 1007.34 1008.03 1008.71 1009.37 1010.04 1010.73 1011.45
1002.30 1001.11 999.98 998.97 998.08 997.35 996.77 996.34 996.07 995.96 995.99 996.16 996.46 996.87 997.39 997.97 998.60 999.23 999.85 1000.41 1000.91 1001.32 1001.65 1001.91 1002.11 1002.29 1002.47 1002.68 1002.95 1003.28 1003.70 1004.20 1004.78 1005.42 1006.10 1006.82 1007.54 1008.27 1008.98 1009.67 1010.36 1011.04 1011.74 1012.46
1002.62 1001.64 1000.74 999.94 999.24 998.65 998.18 997.81 997.55 997.39 997.34 997.39 997.55 997.82 998.17 998.61 999.12 999.66 1000.22 1000.78 1001.30 1001.78 1002.20 1002.56 1002.87 1003.15 1003.41 1003.68 1003.97 1004.32 1004.72 1005.20 1005.75 1006.36 1007.02 1007.73 1008.46 1009.20 1009.93 1010.66 1011.37 1012.08 1012.79 1013.50
1003.14 1002.39 1001.72 1001.15 1000.65 1000.23 999.86 999.55 999.28 999.05 998.88 998.77 998.75 998.80 998.96 999.22 999.57 1000.00 1000.50 1001.04 1001.59 1002.14 1002.65 1003.13 1003.56 1003.94 1004.29 1004.63 1004.96 1005.32 1005.72 1006.17 1006.69 1007.28 1007.93 1008.62 1009.36 1010.11 1010.88 1011.63 1012.38 1013.10 1013.82 1014.52
1003.89 1003.35 1002.90 1002.54 1002.23 1001.96 1001.68 1001.41 1001.11 1000.80 1000.50 1000.21 999.98 999.82 999.77 999.84 1000.03 1000.35 1000.78 1001.30 1001.88 1002.49 1003.09 1003.67 1004.20 1004.69 1005.12 1005.51 1005.89 1006.26 1006.66 1007.10 1007.60 1008.17 1008.81 1009.50 1010.24 1011.01 1011.79 1012.57 1013.34 1014.08 1014.80 1015.49
1004.84 1004.46 1004.20 1004.01 1003.85 1003.69 1003.49 1003.23 1002.90 1002.51 1002.07 1001.62 1001.20 1000.86 1000.62 1000.52 1000.58 1000.80 1001.17 1001.67 1002.26 1002.91 1003.58 1004.24 1004.85 1005.41 1005.91 1006.35 1006.76 1007.15 1007.55 1007.99 1008.48 1009.03 1009.66 1010.36 1011.10 1011.88 1012.67 1013.47 1014.24 1014.98 1015.69 1016.35
1005.88 1005.64 1005.50 1005.43 1005.38 1005.30 1005.13 1004.88 1004.51 1004.04 1003.51 1002.94 1002.38 1001.90 1001.53 1001.32 1001.28 1001.42 1001.74 1002.22 1002.81 1003.48 1004.19 1004.88 1005.54 1006.14 1006.67 1007.14 1007.56 1007.97 1008.38 1008.82 1009.31 1009.87 1010.49 1011.19 1011.93 1012.71 1013.51 1014.29 1015.05 1015.78 1016.46 1017.09
1006.90 1006.75 1006.71 1006.72 1006.72 1006.67 1006.52 1006.25 1005.85 1005.34 1004.74 1004.10 1003.48 1002.92 1002.49 1002.22 1002.13 1002.23 1002.53 1002.98 1003.56 1004.22 1004.92 1005.61 1006.27 1006.87 1007.40 1007.88 1008.31 1008.72 1009.14 1009.59 1010.09 1010.66 1011.29 1011.98 1012.72 1013.49 1014.27 1015.03 1015.77 1016.46 1017.09 1017.67
1007.80 1007.73 1007.74 1007.79 1007.81 1007.76 1007.61 1007.32 1006.90 1006.36 1005.75 1005.10 1004.47 1003.91 1003.47 1003.20 1003.12 1003.22 1003.50 1003.93 1004.48 1005.10 1005.76 1006.41 1007.02 1007.59 1008.10 1008.56 1008.99 1009.40 1009.83 1010.30 1010.82 1011.40 1012.04 1012.73 1013.46 1014.21 1014.96 1015.68 1016.37 1017.01 1017.59 1018.11
1008.53 1008.52 1008.56 1008.62 1008.64 1008.57 1008.39 1008.08 1007.66 1007.13 1006.53 1005.92 1005.33 1004.83 1004.46 1004.23 1004.18 1004.31 1004.58 1004.99 1005.50 1006.07 1006.65 1007.23 1007.77 1008.28 1008.74 1009.17 1009.58 1010.00 1010.45 1010.94 1011.48 1012.08 1012.73 1013.43 1014.14 1014.86 1015.57 1016.24 1016.87 1017.44 1017.96 1018.42
1009.12 1009.15 1009.21 1009.26 1009.25 1009.15 1008.95 1008.62 1008.20 1007.69 1007.14 1006.59 1006.09 1005.68 1005.40 1005.25 1005.26 1005.41 1005.70 1006.08 1006.54 1007.03 1007.53 1008.02 1008.48 1008.91 1009.32 1009.72 1010.12 1010.55 1011.01 1011.53 1012.10 1012.72 1013.38 1014.07 1014.76 1015.45 1016.11 1016.72 1017.28 1017.78 1018.23 1018.63
1009.61 1009.68 1009.74 1009.77 1009.73 1009.60 1009.36 1009.03 1008.60 1008.13 1007.64 1007.17 1006.77 1006.46 1006.27 1006.21 1006.29 1006.47 1006.76 1007.12 1007.52 1007.93 1008.35 1008.74 1009.12 1009.48 1009.84 1010.21 1010.61 1011.05 1011.54 1012.08 1012.68 1013.32 1013.99 1014.67 1015.34 1015.98 1016.59 1017.13 1017.63 1018.07 1018.45 1018.79
1010.07 1010.16 1010.22 1010.23 1010.16 1009.99 1009.73 1009.38 1008.97 1008.53 1008.09 1007.70 1007.39 1007.18 1007.08 1007.10 1007.23 1007.44 1007.73 1008.05 1008.40 1008.74 1009.08 1009.40 1009.71 1010.01 1010.34 1010.69 1011.09 1011.55 1012.06 1012.64 1013.26 1013.91 1014.58 1015.25 1015.89 1016.48 1017.03 1017.52 1017.95 1018.32 1018.65 1018.95
1010.54 1010.64 1010.70 1010.69 1010.59 1010.40 1010.11 1009.75 1009.35 1008.95 1008.56 1008.24 1008.00 1007.87 1007.84 1007.91 1008.08 1008.31 1008.58 1008.88 1009.17 1009.46 1009.73 1009.99 1010.25 1010.52 1010.83 1011.19 1011.60 1012.08 1012.62 1013.22 1013.86 1014.52 1015.18 1015.81 1016.41 1016.96 1017.45 1017.88 1018.25 1018.58 1018.86 1019.12
1011.02 1011.13 1011.19 1011.17 1011.06 1010.84 1010.55 1010.19 1009.81 1009.43 1009.09 1008.81 1008.63 1008.55 1008.57 1008.67 1008.85 1009.08 1009.34 1009.60 1009.85 1010.10 1010.32 1010.55 1010.79 1011.05 1011.36 1011.73 1012.17 1012.67 1013.23 1013.85 1014.49 1015.13 1015.77 1016.37 1016.92 1017.41 1017.84 1018.22 1018.55 1018.83 1019.09 1019.32
1011.50 1011.62 1011.68 1011.66 1011.54 1011.33 1011.04 1010.70 1010.33 1009.98 1009.68 1009.44 1009.30 1009.25 1009.29 1009.41 1009.59 1009.80 1010.03 1010.27 1010.49 1010.70 1010.90 1011.11 1011.35 1011.62 1011.95 1012.34 1012.80 1013.32 1013.90 1014.51 1015.14 1015.76 1016.35 1016.90 1017.40 1017.84 1018.21 1018.54 1018.83 1019.09 1019.32 1019.54
1011.92 1012.05 1012.13 1012.12 1012.02 1011.82 1011.55 1011.24 1010.91 1010.60 1010.33 1010.13 1010.01 1009.98 1010.03 1010.15 1010.31 1010.50 1010.70 1010.90 1011.10 1011.29 1011.49 1011.70 1011.95 1012.24 1012.59 1013.01 1013.49 1014.02 1014.59 1015.19 1015.78 1016.36 1016.90 1017.40 1017.83 1018.21 1018.54 1018.83 1019.08 1019.32 1019.54 1019.76
1012.24 1012.40 1012.50 1012.52 1012.44 1012.28 1012.06 1011.79 1011.50 1011.23 1011.01 1010.84 1010.75 1010.73 1010.78 1010.88 1011.02 1011.19 1011.36 1011.54 1011.72 1011.90 1012.09 1012.32 1012.58 1012.89 1013.27 1013.70 1014.19 1014.72 1015.28 1015.84 1016.40 1016.92 1017.40 1017.83 1018.20 1018.53 1018.81 1019.07 1019.30 1019.52 1019.74 1019.96
1012.45 1012.64 1012.77 1012.83 1012.80 1012.69 1012.51 1012.30 1012.07 1011.86 1011.67 1011.55 1011.48 1011.47 1011.52 1011.61 1011.73 1011.87 1012.02 1012.17 1012.33 1012.51 1012.71 1012.94 1013.22 1013.55 1013.94 1014.39 1014.87 1015.39 1015.92 1016.44 1016.95 1017.41 1017.82 1018.19 1018.51 1018.78 1019.02 1019.25 1019.46 1019.67 1019.89 1020.11
1012.57 1012.80 1012.97 1013.07 1013.08 1013.02 1012.91 1012.75 1012.59 1012.43 1012.30 1012.21 1012.17 1012.18 1012.23 1012.31 1012.41 1012.53 1012.65 1012.79 1012.94 1013.11 1013.31 1013.55 1013.84 1014.19 1014.58 1015.03 1015.50 1015.99 1016.49 1016.97 1017.41 1017.82 1018.17 1018.48 1018.74 1018.97 1019.18 1019.38 1019.58 1019.79 1020.00 1020.21
1012.66 1012.93 1013.13 1013.27 1013.32 1013.31 1013.24 1013.14 1013.04 1012.94 1012.86 1012.81 1012.80 1012.83 1012.88 1012.96 1013.05 1013.15 1013.26 1013.38 1013.52 1013.69 1013.89 1014.13 1014.43 1014.77 1015.17 1015.60 1016.06 1016.52 1016.98 1017.41 1017.80 1018.15 1018.45 1018.71 1018.93 1019.13 1019.31 1019.49 1019.67 1019.87 1020.07 1020.27
1012.78 1013.07 1013.30 1013.45 1013.53 1013.55 1013.53 1013.48 1013.42 1013.37 1013.34 1013.33 1013.36 1013.40 1013.47 1013.55 1013.64 1013.73 1013.83 1013.94 1014.07 1014.23 1014.43 1014.67 1014.96 1015.30 1015.69 1016.10 1016.54 1016.97 1017.39 1017.78 1018.13 1018.43 1018.69 1018.91 1019.09 1019.26 1019.42 1019.58 1019.75 1019.93 1020.11 1020.29
1012.97 1013.28 1013.51 1013.67 1013.76 1013.79 1013.79 1013.77 1013.75 1013.74 1013.75 1013.78 1013.83 1013.90 1013.98 1014.07 1014.16 1014.25 1014.35 1014.46 1014.59 1014.74 1014.94 1015.17 1015.46 1015.79 1016.16 1016.55 1016.96 1017.36 1017.75 1018.10 1018.41 1018.68 1018.90 1019.09 1019.24 1019.39 1019.52 1019.66 1019.81 1019.97 1020.13 1020.28
1013.25 1013.55 1013.76 1013.91 1013.99 1014.03 1014.03 1014.03 1014.04 1014.06 1014.09 1014.15 1014.23 1014.32 1014.43 1014.53 1014.63 1014.73 1014.83 1014.94 1015.07 1015.23 1015.42 1015.65 1015.92 1016.24 1016.59 1016.96 1017.34 1017.71 1018.07 1018.39 1018.67 1018.90 1019.10 1019.26 1019.39 1019.51 1019.63 1019.74 1019.86 1019.99 1020.11 1020.23
1013.57 1013.84 1014.03 1014.15 1014.21 1014.24 1014.25 1014.26 1014.28 1014.32 1014.38 1014.46 1014.57 1014.68 1014.81 1014.93 1015.04 1015.16 1015.28 1015.40 1015.53 1015.69 1015.88 1016.11 1016.37 1016.67 1017.00 1017.35 1017.70 1018.04 1018.36 1018.65 1018.90 1019.11 1019.28 1019.42 1019.53 1019.63 1019.72 1019.80 1019.89 1019.98 1020.06 1020.14
Thickness
5436 5441 5438 5440 5441 5436 5431 5432 5430 5442 5444 5459 5458 5452 5450 5447 5444 5443 5442 5440 5438 5435 5434 5432 5432 5431 5430 5430 5429 5428 5427 5427 5427 5426 5426 5425 5425 5424 5424 5424 5423 5423 5422 5422
5426 5436 5434 5435 5439 5437 5435 5433 5431 5435 5443 5453 5448 5444 5441 5438 5435 5434 5433 5432 5431 5428 5426 5425 5423 5422 5421 5420 5419 5419 5418 5418 5418 5417 5416 5416 5415 5415 5415 5414 5413 5413 5412 5412
5415 5420 5424 5428 5438 5437 5434 5432 5432 5433 5443 5441 5437 5436 5434 5432 5429 5426 5425 5423 5421 5419 5418 5416 5414 5413 5411 5411 5411 5410 5410 5409 5409 5408 5407 5407 5407 5406 5405 5404 5403 5403 5403 5404
5400 5404 5414 5440 5438 5435 5433 5432 5428 5431 5432 5430 5428 5426 5424 5423 5420 5419 5417 5415 5412 5410 5408 5407 5406 5405 5404 5403 5402 5402 5401 5401 5400 5399 5398 5398 5397 5396 5396 5395 5394 5394 5395 5396
5391 5394 5407 5427 5431 5426 5422 5423 5424 5421 5421 5419 5416 5414 5414 5414 5411 5410 5407 5405 5403 5401 5399 5397 5397 5396 5395 5393 5393 5393 5393 5392 5392 5392 5391 5390 5389 5389 5388 5387 5386 5386 5387 5388
5384 5389 5398 5423 5425 5419 5416 5410 5420 5414 5411 5407 5406 5403 5407 5406 5402 5400 5398 5395 5394 5391 5390 5388 5387 5387 5386 5385 5384 5384 5385 5385 5384 5384 5383 5383 5382 5381 5380 5380 5380 5380 5380 5381
5382 5381 5396 5413 5412 5411 5404 5410 5414 5408 5404 5399 5396 5397 5397 5394 5391 5390 5388 5386 5384 5382 5380 5380 5379 5378 5377 5377 5376 5377 5377 5377 5377 5377 5376 5376 5376 5375 5373 5373 5373 5372 5373 5374
5375 5376 5395 5410 5402 5402 5405 5406 5403 5401 5397 5392 5390 5389 5386 5384 5382 5380 5378 5376 5375 5373 5371 5371 5371 5370 5369 5369 5370 5370 5370 5370 5370 5370 5370 5370 5369 5368 5368 5366 5366 5365 5366 5367
5388 5400 5405 5400 5400 5402 5398 5396 5396 5393 5390 5386 5382 5380 5379 5376 5374 5371 5370 5368 5367 5364 5363 5362 5362 5362 5362 5363 5363 5364 5363 5363 5363 5363 5362 5363 5362 5362 5362 5361 5360 5360 5361 5361
5382 5393 5396 5395 5394 5394 5391 5390 5389 5386 5382 5379 5375 5373 5370 5368 5366 5363 5361 5360 5359 5357 5355 5355 5355 5355 5356 5357 5357 5357 5357 5357 5357 5357 5356 5356 5357 5357 5357 5356 5356 5356 5357 5357
5380 5388 5388 5391 5389 5388 5386 5383 5381 5378 5375 5372 5369 5366 5363 5360 5359 5356 5355 5353 5351 5349 5348 5348 5348 5349 5350 5351 5351 5351 5351 5351 5352 5352 5351 5351 5351 5351 5352 5352 5352 5353 5353 5353
5389 5391 5384 5387 5387 5383 5379 5376 5373 5370 5367 5365 5362 5359 5356 5354 5352 5349 5347 5346 5344 5343 5342 5341 5341 5342 5344 5345 5346 5346 5346 5346 5346 5346 5346 5346 5346 5346 5348 5349 5350 5351 5352 5352
5388 5386 5381 5381 5378 5375 5372 5370 5367 5364 5361 5358 5355 5352 5349 5347 5345 5343 5341 5340 5338 5337 5336 5335 5335 5337 5338 5340 5341 5341 5341 5341 5341 5341 5341 5341 5342 5342 5343 5344 5346 5347 5348 5349
5380 5377 5374 5373 5370 5367 5364 5361 5359 5356 5353 5350 5348 5345 5342 5340 5338 5337 5335 5334 5333 5331 5330 5330 5331 5332 5334 5335 5336 5336 5337 5337 5337 5336 5336 5337 5337 5338 5338 5339 5340 5340 5342 5343
5372 5370 5367 5364 5361 5358 5356 5353 5350 5347 5345 5342 5340 5338 5336 5334 5333 5332 5330 5329 5328 5327 5326 5326 5327 5329 5330 5331 5332 5332 5332 5332 5332 5332 5332 5333 5333 5333 5334 5334 5334 5335 5336 5337
5364 5361 5357 5354 5352 5350 5347 5345 5342 5340 5338 5336 5333 5332 5330 5329 5327 5326 5325 5324 5323 5323 5324 5324 5325 5326 5326 5327 5328 5328 5328 5329 5329 5328 5328 5328 5328 5328 5329 5329 5329 5330 5331 5331
5355 5352 5349 5347 5345 5343 5341 5339 5337 5335 5332 5330 5328 5326 5324 5322 5321 5320 5320 5320 5319 5320 5321 5321 5322 5323 5323 5324 5324 5324 5324 5324 5325 5324 5323 5323 5324 5324 5324 5324 5324 5325 5326 5328
5352 5350 5346 5343 5340 5338 5335 5333 5330 5328 5326 5324 5322 5319 5317 5316 5315 5315 5315 5314 5315 5316 5317 5318 5319 5319 5320 5320 5320 5320 5320 5320 5320 5319 5319 5319 5319 5319 5319 5319 5320 5320 5321 5323
5344 5342 5339 5337 5334 5331 5328 5326 5324 5322 5320 5317 5315 5313 5312 5311 5310 5309 5309 5308 5310 5312 5314 5315 5316 5316 5316 5317 5317 5316 5316 5316 5316 5316 5316 5316 5316 5315 5315 5315 5316 5316 5317 5319
5336 5334 5331 5328 5326 5323 5321 5319 5316 5314 5313 5311 5310 5308 5307 5306 5305 5304 5304 5305 5307 5310 5311 5311 5312 5312 5313 5313 5313 5313 5312 5312 5312 5312 5312 5311 5311 5311 5312 5312 5313 5313 5314 5315
5327 5325 5323 5320 5318 5316 5314 5312 5310 5308 5308 5306 5305 5304 5303 5302 5301 5300 5301 5303 5305 5306 5307 5309 5309 5309 5310 5310 5310 5310 5309 5309 5309 5308 5308 5308 5307 5308 5308 5309 5309 5311 5312 5313
5318 5316 5314 5312 5310 5308 5307 5305 5304 5303 5302 5301 5300 5299 5298 5297 5297 5297 5298 5300 5302 5304 5304 5305 5305 5307 5307 5308 5307 5307 5306 5306 5306 5306 5305 5305 5305 5305 5306 5306 5307 5308 5309 5310
5310 5309 5307 5306 5304 5302 5300 5299 5298 5297 5297 5296 5295 5295 5295 5295 5295 5296 5297 5298 5299 5300 5301 5301 5303 5305 5306 5305 5304 5304 5304 5303 5303 5303 5303 5303 5303 5304 5304 5305 5305 5306 5306 5307
5303 5302 5300 5298 5296 5294 5294 5294 5293 5293 5291 5291 5291 5291 5291 5291 5292 5293 5294 5295 5296 5297 5297 5299 5301 5302 5303 5302 5302 5301 5301 5301 5301 5301 5301 5301 5302 5302 5303 5303 5303 5304 5304 5305
5297 5295 5293 5292 5291 5291 5290 5289 5287 5287 5286 5286 5286 5287 5288 5289 5289 5290 5290 5291 5293 5294 5294 5296 5298 5299 5298 5298 5298 5299 5299 5299 5299 5299 5299 5300 5300 5300 5301 5301 5301 5302 5302 5302
5291 5290 5289 5288 5287 5287 5286 5285 5284 5283 5283 5283 5283 5284 5284 5285 5285 5286 5286 5287 5289 5290 5291 5291 5292 5294 5294 5294 5295 5295 5296 5297 5297 5297 5297 5298 5298 5298 5299 5299 5299 5299 5300 5300
5285 5285 5284 5284 5284 5283 5282 5281 5280 5280 5280 5280 5280 5281 5281 5281 5281 5281 5282 5283 5284 5285 5286 5287 5288 5289 5290 5290 5291 5292 5293 5293 5294 5294 5295 5295 5296 5296 5296 5296 5297 5297 5298 5298